Regional Weather Roundup
Issued by NWS State College, PA

Home | Current Version | Previous Version | Graphics & Text | Print | Product List | Glossary On
Versions: 1 2 3 4 5 6 7 8 9 10 11 12 13 14 15 16 17 18 19 20 21 22 23 24 25 26 27 28 29 30 31 32 33 34 35 36 37 38 39 40 41 42 43 44 45 46 47 48 49 50
000
ASUS41 KCTP 230010
RWRCTP

REGIONAL WEATHER ROUNDUP
NATIONAL WEATHER SERVICE STATE COLLEGE PA
800 PM EDT TUE APR 22 2014

Note: "fair" indicates few or no clouds below 12,000 feet with no
significant weather and/or obstructions to visibility.

* = STATION THAT DOES NOT REPORT PRECIPITATION /E.G. RAIN...SNOW...ETC/
    THUNDER OR FOG.

PAZ002>004-007>009-013>016-020>023-029>032-230100-
WESTERN PENNSYLVANIA

CITY           SKY/WX    TMP DP  RH WIND       PRES   REMARKS
ERIE           CLOUDY    43  35  73 W12G17    29.77R
MEADVILLE      NOT AVBL
FRANKLIN*      CLOUDY    43  34  70 NW7       29.77R
NEW CASTLE     MOCLDY    47  35  63 NW15G25   29.78R
BEAVER COUNTY  MOCLDY    48  37  66 NW12      29.75R
BUTLER*        PTCLDY    46  37  71 NW8       29.76R
PITTSBURGH INT PTCLDY    50  41  71 N17G23    29.73R
PITTSBURGH     PTCLDY    51  39  63 NW13G22   29.72R
INDIANA*       PTCLDY    48  41  76 NW12      29.73R
LATROBE        MOCLDY    52  45  76 N12       29.74R
WASHINGTON CO* PTCLDY    52  41  66 N9G18     29.75R
$$

PAZ004>006-010>012-017>019-024>028-033>037-041-042-045-046-049>053-230100-
CENTRAL PENNSYLVANIA

CITY           SKY/WX    TMP DP  RH WIND       PRES   REMARKS
BRADFORD       CLOUDY    41  30  65 NW12      29.69R
DUBOIS         MOCLDY    45  35  68 W14G23    29.70R
CLEARFIELD     CLEAR     47  36  65 NW17G24   29.69R
JOHNSTOWN      PTCLDY    47  39  74 NW23G35   29.67R
ALTOONA        PTCLDY    54  42  64 NW14G21   29.66R
STATE COLLEGE  PTCLDY    57  36  44 NW16G24   29.63R
WILLIAMSPORT   CLOUDY    61  50  67 W9        29.55R
SELINSGROVE    CLOUDY    59  50  72 W3        29.57R
FT INDIANTOWN  MOCLDY    55  55 100 W7        29.59R
CAPITAL CITY   CLOUDY    55  51  86 W5        29.60R
HARRISBURG     CLOUDY    56  50  80 CALM      29.59R
YORK           MOCLDY    56  51  84 CALM      29.61R
$$

PAZ038>040-043-044-047-048-054-055-060>062-067>071-230100-
EASTERN PENNSYLVANIA

CITY           SKY/WX    TMP DP  RH WIND       PRES   REMARKS
SCRANTON       CLOUDY    61  49  64 SW6       29.55R
MOUNT POCONO   MOCLDY    56  48  74 W7        29.56R
ALLENTOWN      CLOUDY    58  47  66 W5        29.55F
QUAKERTOWN*    MOCLDY    59  48  67 SW3       29.59S
READING        LGT RAIN  57  50  77 SE9       29.54F
LANCASTER      CLOUDY    55  50  83 S3        29.57F
COATESVILLE    NOT AVBL
POTTSTOWN      LGT RAIN  57  51  80 W12       29.63R
BLUE BELL      MOCLDY    66  54  63 W6        29.58R
DOYLESTOWN     LGT RAIN  61  52  72 W12G20    29.58R
WILLOW GROVE   NOT AVBL
NORTH PHILA    MOCLDY    67  52  58 W10       29.59R
PHILADELPHIA   TSTM      66  50  56 W31G39    29.62R
$$



USA.gov is the U.S. government's official web portal to all federal, state and local government web resources and services.